Location: Sternwarte Stuttgart
(48.7670°N, 9.1830°E)
Time: 14:17:50
(UTC+02:00)

Cosmos 2084 - Pass Details

Date: 24 January 2019
Orbit: 533 x 651 km, 62.8° (Epoch: 21 April)

Event Time Altitude Azimuth Distance (km) Brightness Sun altitude
Exits shadow 06:46:05 17° 311° (NW) 1,422 4.9 -12.6°
Maximum altitude 06:49:07 67° 232° (SW) 586 3.3 -12.2°
Drops below altitude 10° 06:53:04 10° 149° (SSE) 1,781 6.6 -11.5°
Sets 06:55:15 0° 147° (SSE) 2,666 7.7 -11.2°
